GW1859 Weather Reports


time (UTC)temp
F
wind
direction
speed
knots
gust
knots
rain 1hr
in
rain 24hr
in
rain mn
in
humidity
%
barometer
mb
20260509043907 57 141 0.0 0.0 0.00 0.00 0.00 68 1012.5
20260509043402 57 147 0.0 0.0 0.00 0.00 0.00 68 1012.2
20260509042858 57 152 0.0 0.0 0.00 0.00 0.00 66 1012.5
20260509042355 56 149 0.0 0.0 0.00 0.00 0.00 68 1012.4
20260509041851 55 150 0.0 0.0 0.00 0.00 0.00 71 1012.3
20260509041343 54 156 0.0 0.0 0.00 0.00 0.00 75 1012.2
20260509040841 53 125 0.0 0.0 0.00 0.00 0.00 77 1012.3
20260509040339 54 125 0.0 0.0 0.00 0.00 0.00 76 1012.2
20260509035835 54 125 0.0 0.0 0.00 0.00 0.00 76 1012.3
20260509035333 54 125 0.0 0.0 0.00 0.00 0.00 74 1012.3
20260509034828 55 125 0.0 0.0 0.00 0.00 0.00 75 1012.2
20260509034327 55 125 0.0 0.0 0.00 0.00 0.00 74 1012.1
20260509033823 55 125 0.0 0.0 0.00 0.00 0.00 72 1012.4
20260509033321 56 125 0.0 0.0 0.00 0.00 0.00 72 1012.1
20260509032817 56 125 0.0 0.0 0.00 0.00 0.00 71 1012.1
20260509032314 56 125 0.0 0.0 0.00 0.00 0.00 71 1012.2
20260509031812 57 125 0.0 0.0 0.00 0.00 0.00 70 1011.7
20260509031309 57 125 0.0 0.0 0.00 0.00 0.00 70 1012.0
20260509030807 57 125 0.0 0.0 0.00 0.00 0.00 69 1011.8
20260509030305 57 125 0.0 0.0 0.00 0.00 0.00 69 1011.8
20260509025801 57 125 0.0 0.0 0.00 0.00 0.00 69 1011.7
20260509025256 57 125 0.0 0.0 0.00 0.00 0.00 69 1012.0
20260509024752 58 125 0.0 0.0 0.00 0.00 0.00 69 1011.8
20260509024248 58 125 0.0 0.0 0.00 0.00 0.00 67 1011.6
20260509023746 59 125 0.0 0.0 0.00 0.00 0.00 66 1011.5
20260509023243 59 125 0.0 0.0 0.00 0.00 0.00 65 1011.4
20260509022739 60 125 0.0 0.0 0.00 0.00 0.00 63 1011.3
20260509022237 60 125 0.0 0.0 0.00 0.00 0.00 61 1011.2
20260509021733 61 125 0.0 0.0 0.00 0.00 0.00 60 1011.3
20260509021231 62 125 0.0 0.0 0.00 0.00 0.00 59 1011.4
20260509020729 63 125 0.0 0.0 0.00 0.00 0.00 58 1010.9
20260509020226 64 125 0.0 0.0 0.00 0.00 0.00 56 1011.2
20260509015724 64 125 0.0 0.0 0.00 0.00 0.00 54 1011.2
20260509015222 65 125 0.0 0.0 0.00 0.00 0.00 54 1011.0
20260509014718 65 123 0.0 0.0 0.00 0.00 0.00 53 1011.0
20260509014215 66 123 0.0 0.0 0.00 0.00 0.00 51 1010.8
20260509013712 67 125 0.0 0.0 0.00 0.00 0.00 51 1011.1
20260509013207 67 124 0.0 0.0 0.00 0.00 0.00 50 1010.9
20260509012704 68 110 0.0 0.9 0.00 0.00 0.00 49 1010.9
20260509012201 68 107 0.9 0.9 0.00 0.00 0.00 48 1010.7
20260509011658 69 116 0.0 0.0 0.00 0.00 0.00 47 1010.8
20260509011155 69 130 0.0 0.0 0.00 0.00 0.00 47 1010.6
20260509010653 70 123 0.0 0.0 0.00 0.00 0.00 47 1010.5
20260509010149 71 130 0.0 0.0 0.00 0.00 0.00 46 1010.7
20260509005647 71 120 0.0 0.0 0.00 0.00 0.00 45 1010.7
20260509005144 72 127 0.0 0.0 0.00 0.00 0.00 44 1010.6
20260509004639 73 115 0.0 0.9 0.00 0.00 0.00 43 1010.6
20260509004136 73 122 0.9 0.9 0.00 0.00 0.00 44 1010.6
20260509003635 73 102 1.7 1.7 0.00 0.00 0.00 42 1010.3
20260509003132 74 315 2.6 7.0 0.00 0.00 0.00 41 1010.3
20260509002629 75 115 0.0 0.0 0.00 0.00 0.00 41 1010.2
20260509002126 76 117 0.0 0.0 0.00 0.00 0.00 40 1010.3
20260509001624 77 163 0.0 0.0 0.00 0.00 0.00 40 1010.1
20260509001119 77 356 1.7 1.7 0.00 0.00 0.00 38 1010.0
20260509000618 77 112 1.7 1.7 0.00 0.00 0.00 39 1009.8
20260509000114 78 100 0.9 1.7 0.00 0.00 0.00 38 1009.8
20260508235612 77 124 0.0 0.0 0.00 0.00 0.00 40 1010.0
20260508235108 77 87 0.0 0.9 0.00 0.00 0.00 39 1009.9
20260508234606 79 350 0.9 5.2 0.00 0.00 0.00 38 1010.0
20260508234102 79 111 0.9 0.9 0.00 0.00 0.00 39 1009.8
20260508233601 79 312 2.6 4.3 0.00 0.00 0.00 37 1009.8
20260508233059 78 329 2.6 6.1 0.00 0.00 0.00 37 1009.9
20260508232555 79 62 0.9 2.6 0.00 0.00 0.00 37 1009.7
20260508232052 80 69 0.9 1.7 0.00 0.00 0.00 37 1009.3
20260508231550 80 137 0.0 0.0 0.00 0.00 0.00 37 1009.3
20260508231047 80 140 0.9 1.7 0.00 0.00 0.00 37 1009.5
20260508230543 80 125 1.7 1.7 0.00 0.00 0.00 36 1009.3
20260508230040 80 106 0.9 1.7 0.00 0.00 0.00 37 1009.3
20260508225537 80 316 0.9 2.6 0.00 0.00 0.00 37 1009.6
20260508225034 80 43 2.6 5.2 0.00 0.00 0.00 36 1009.3
20260508224532 81 326 6.1 8.7 0.00 0.00 0.00 37 1009.2
20260508224029 80 104 1.7 1.7 0.00 0.00 0.00 39 1009.1
20260508223527 81 102 1.7 2.6 0.00 0.00 0.00 39 1009.2
20260508223024 80 115 0.0 0.0 0.00 0.00 0.00 41 1009.3
20260508222521 82 347 0.9 1.7 0.00 0.00 0.00 40 1009.0
20260508222018 81 105 1.7 1.7 0.00 0.00 0.00 42 1009.2
20260508221514 80 96 1.7 4.3 0.00 0.00 0.00 42 1008.9
20260508221010 82 75 2.6 5.2 0.00 0.00 0.00 40 1009.0
20260508220507 83 290 1.7 1.7 0.00 0.00 0.00 38 1008.7
20260508220003 82 85 1.7 1.7 0.00 0.00 0.00 37 1008.9
20260508215500 82 26 4.3 6.1 0.00 0.00 0.00 37 1008.8
20260508214956 82 125 0.0 0.0 0.00 0.00 0.00 38 1009.1
20260508214454 81 68 3.5 4.3 0.00 0.00 0.00 38 1008.8
20260508213950 83 7 3.5 5.2 0.00 0.00 0.00 36 1008.7
20260508213448 83 19 2.6 4.3 0.00 0.00 0.00 37 1008.7
20260508212943 82 128 0.0 0.9 0.00 0.00 0.00 39 1008.7
20260508212440 82 331 2.6 2.6 0.00 0.00 0.00 38 1009.0
20260508211936 81 124 1.7 1.7 0.00 0.00 0.00 38 1009.2
20260508211431 81 125 0.0 0.9 0.00 0.00 0.00 41 1009.1
20260508210929 80 103 1.7 1.7 0.00 0.00 0.00 41 1009.1
20260508210426 81 115 1.7 1.7 0.00 0.00 0.00 39 1009.2
20260508205922 78 17 1.7 2.6 0.00 0.00 0.00 41 1009.2
20260508205419 78 122 0.9 2.6 0.00 0.00 0.00 41 1008.8
20260508204915 78 240 0.9 1.7 0.00 0.00 0.00 42 1009.3
20260508204413 78 119 0.9 0.9 0.00 0.00 0.00 45 1009.2
20260508203908 77 48 2.6 4.3 0.00 0.00 0.00 45 1009.5
20260508203404 77 121 0.0 0.9 0.00 0.00 0.00 47 1009.3
20260508202900 78 19 2.6 4.3 0.00 0.00 0.00 43 1009.6
20260508202358 79 298 2.6 2.6 0.00 0.00 0.00 43 1009.7
20260508201855 81 300 2.6 2.6 0.00 0.00 0.00 41 1009.7
20260508201351 80 107 0.9 1.7 0.00 0.00 0.00 45 1009.7
20260508200848 80 144 0.0 0.0 0.00 0.00 0.00 45 1009.6
20260508200345 78 98 0.0 0.0 0.00 0.00 0.00 46 1009.5
20260508195840 77 261 1.7 1.7 0.00 0.00 0.00 49 1009.7
20260508195337 74 277 2.6 2.6 0.00 0.00 0.00 49 1010.0
20260508194833 73 79 0.9 1.7 0.00 0.00 0.00 49 1009.9
20260508194331 73 126 0.0 0.0 0.00 0.00 0.00 52 1009.8
20260508193828 72 84 0.9 1.7 0.00 0.00 0.00 52 1010.1
20260508193324 73 131 0.0 0.0 0.00 0.00 0.00 54 1010.3
20260508192820 72 162 1.7 1.7 0.00 0.00 0.00 53 1010.2
20260508192318 73 203 1.7 1.7 0.00 0.00 0.00 52 1010.2
20260508191814 73 241 0.9 1.7 0.00 0.00 0.00 51 1010.4
20260508191312 73 239 2.6 2.6 0.00 0.00 0.00 52 1010.6
20260508190804 72 155 0.9 0.9 0.00 0.00 0.00 54 1010.2
20260508190259 72 145 1.7 1.7 0.00 0.00 0.00 54 1010.3
20260508185756 73 126 0.0 0.0 0.00 0.00 0.00 55 1010.0
20260508185254 73 348 1.7 1.7 0.00 0.00 0.00 53 1009.7
20260508184750 71 286 1.7 1.7 0.00 0.00 0.00 54 1009.6
20260508184248 71 31 0.9 1.7 0.00 0.00 0.00 55 1009.7
20260508183745 71 87 0.0 0.9 0.00 0.00 0.00 56 1009.8
20260508183241 71 330 1.7 2.6 0.00 0.00 0.00 55 1010.5
20260508182737 72 165 0.9 0.9 0.00 0.00 0.00 55 1010.4
20260508182234 71 127 0.9 1.7 0.00 0.00 0.00 55 1010.6
20260508181729 71 159 0.9 0.9 0.00 0.00 0.00 57 1010.8
20260508181227 71 165 0.9 1.7 0.00 0.00 0.00 57 1011.1
20260508180723 70 171 0.0 0.0 0.00 0.00 0.00 57 1010.6
20260508180220 70 237 2.6 4.3 0.00 0.00 0.00 56 1010.4
20260508175717 71 190 2.6 2.6 0.00 0.00 0.00 56 1010.5
20260508175214 71 251 2.6 2.6 0.00 0.00 0.00 55 1010.5
20260508174712 71 219 2.6 4.3 0.00 0.00 0.00 55 1010.4
20260508174208 71 278 2.6 2.6 0.00 0.00 0.00 55 1010.8
20260508173704 71 178 0.9 0.9 0.00 0.00 0.00 57 1011.1
20260508173200 71 294 0.9 1.7 0.00 0.00 0.00 56 1010.9
20260508172658 72 197 3.5 6.1 0.00 0.00 0.00 55 1011.1
20260508172155 72 166 0.9 1.7 0.00 0.00 0.00 54 1011.2
20260508171651 73 249 1.7 1.7 0.00 0.00 0.00 54 1011.2
20260508171147 73 322 1.7 2.6 0.00 0.00 0.00 53 1011.1
20260508170645 73 307 1.7 4.3 0.00 0.00 0.00 53 1010.8
20260508170142 73 179 1.7 4.3 0.00 0.00 0.00 53 1011.1
20260508165639 74 165 2.6 2.6 0.00 0.00 0.00 52 1010.9
20260508165136 73 234 2.6 4.3 0.00 0.00 0.00 53 1011.0
20260508164632 74 218 1.7 2.6 0.00 0.00 0.00 53 1011.0
20260508164129 73 191 2.6 2.6 0.00 0.00 0.00 53 1011.1
20260508163627 73 226 3.5 5.2 0.00 0.00 0.00 54 1011.2
20260508163123 73 167 2.6 4.3 0.00 0.00 0.00 53 1010.9
20260508162614 72 248 2.6 2.6 0.00 0.00 0.00 56 1011.0
20260508162112 71 177 3.5 4.3 0.00 0.00 0.00 55 1010.7
20260508161608 72 183 3.5 5.2 0.00 0.00 0.00 55 1010.6
20260508161106 71 198 1.7 2.6 0.00 0.00 0.00 57 1010.6
20260508160604 70 159 0.9 1.7 0.00 0.00 0.00 60 1011.0
20260508160101 69 178 0.9 1.7 0.00 0.00 0.00 60 1010.9
20260508155558 69 196 2.6 5.2 0.00 0.00 0.00 60 1011.4
20260508155055 69 161 1.7 1.7 0.00 0.00 0.00 60 1011.4
20260508154552 69 163 1.7 2.6 0.00 0.00 0.00 61 1011.4
20260508154049 68 234 3.5 5.2 0.00 0.00 0.00 61 1011.3
20260508153545 69 229 3.5 4.3 0.00 0.00 0.00 61 1011.3
20260508153042 68 186 2.6 2.6 0.00 0.00 0.00 62 1011.3
20260508152540 67 157 1.7 5.2 0.00 0.00 0.00 63 1011.4
20260508152034 67 211 1.7 2.6 0.00 0.00 0.00 63 1011.5
20260508151531 67 223 1.7 2.6 0.00 0.00 0.00 63 1011.5
20260508151028 66 188 2.6 4.3 0.00 0.00 0.00 64 1011.7
20260508150525 66 214 2.6 2.6 0.00 0.00 0.00 65 1011.8
20260508150021 66 131 0.9 1.7 0.00 0.00 0.00 65 1011.5
20260508145518 65 189 3.5 4.3 0.00 0.00 0.00 66 1011.5
20260508145014 65 133 0.9 0.9 0.00 0.00 0.00 66 1011.5
20260508144512 64 163 2.6 2.6 0.00 0.00 0.00 67 1011.5
20260508144009 64 177 2.6 2.6 0.00 0.00 0.00 67 1012.1
20260508143507 64 181 1.7 1.7 0.00 0.00 0.00 68 1012.4
20260508143003 64 216 0.9 2.6 0.00 0.00 0.00 67 1012.5
20260508142500 64 158 0.9 1.7 0.00 0.00 0.00 67 1012.6
20260508141956 64 170 0.0 0.0 0.00 0.00 0.00 68 1012.3
20260508141453 63 232 1.7 2.6 0.00 0.00 0.00 68 1012.2
20260508140951 63 222 1.7 2.6 0.00 0.00 0.00 69 1012.1
20260508140448 62 163 0.0 0.0 0.00 0.00 0.00 69 1012.6
20260508135943 62 165 2.6 2.6 0.00 0.00 0.00 70 1012.5
20260508135440 62 143 0.0 0.0 0.00 0.00 0.00 71 1012.4
20260508134937 61 198 0.0 0.9 0.00 0.00 0.00 71 1012.4
20260508134433 61 313 1.7 1.7 0.00 0.00 0.00 72 1012.5
20260508133930 60 178 0.9 0.9 0.00 0.00 0.00 72 1012.4
20260508133428 59 161 2.6 2.6 0.00 0.00 0.00 73 1012.4
20260508132924 59 149 0.0 0.0 0.00 0.00 0.00 75 1012.4
20260508132422 58 195 0.9 0.9 0.00 0.00 0.00 74 1012.3
20260508131919 58 314 0.0 0.0 0.00 0.00 0.00 75 1012.4
20260508131414 58 187 1.7 2.6 0.00 0.00 0.00 74 1012.1
20260508130911 57 220 1.7 2.6 0.00 0.00 0.00 75 1012.1
20260508130408 57 191 1.7 1.7 0.00 0.00 0.00 76 1012.0
20260508125904 56 189 1.7 1.7 0.00 0.00 0.00 76 1012.1
20260508125400 56 236 0.9 0.9 0.00 0.00 0.00 76 1012.0
20260508124858 55 147 0.9 0.9 0.00 0.00 0.00 77 1011.6
20260508124355 55 178 0.9 1.7 0.00 0.00 0.00 78 1011.6
20260508123853 54 169 0.9 1.7 0.00 0.00 0.00 78 1011.6
20260508123352 54 220 2.6 4.3 0.00 0.00 0.00 78 1011.6
20260508122847 54 208 1.7 1.7 0.00 0.00 0.00 78 1011.5
20260508122344 53 171 0.9 0.9 0.00 0.00 0.00 78 1011.5
20260508121842 53 146 0.0 0.0 0.00 0.00 0.00 78 1011.7
20260508121340 53 137 0.0 0.9 0.00 0.00 0.00 78 1011.6
20260508120837 53 170 2.6 2.6 0.00 0.00 0.00 78 1011.7
20260508120335 52 167 0.0 0.9 0.00 0.00 0.00 78 1011.6
20260508115832 52 181 0.9 0.9 0.00 0.00 0.00 78 1011.3
20260508115330 52 158 0.9 0.9 0.00 0.00 0.00 78 1011.5
20260508114826 52 124 0.0 0.0 0.00 0.00 0.00 78 1011.6
20260508114323 52 159 0.0 0.9 0.00 0.00 0.00 77 1011.5
20260508113820 52 152 0.0 0.0 0.00 0.00 0.00 77 1011.5
20260508113318 52 146 0.0 0.0 0.00 0.00 0.00 77 1011.8
20260508112814 52 195 0.9 1.7 0.00 0.00 0.00 77 1011.8
20260508112312 52 171 1.7 2.6 0.00 0.00 0.00 76 1011.7
20260508111808 52 178 1.7 1.7 0.00 0.00 0.00 76 1011.7
20260508111305 52 159 0.0 0.9 0.00 0.00 0.00 76 1011.8
20260508110802 52 174 0.0 0.9 0.00 0.00 0.00 75 1011.7
20260508110300 52 193 0.0 0.0 0.00 0.00 0.00 75 1011.6
20260508105759 53 153 0.0 0.9 0.00 0.00 0.00 74 1011.5
20260508105256 53 188 0.9 0.9 0.00 0.00 0.00 74 1011.4
20260508104753 53 191 1.7 2.6 0.00 0.00 0.00 73 1011.6
20260508104250 53 157 0.9 0.9 0.00 0.00 0.00 73 1011.4
20260508103748 53 178 0.9 0.9 0.00 0.00 0.00 72 1011.8
20260508103244 53 191 0.9 1.7 0.00 0.00 0.00 72 1011.6
20260508102741 53 150 0.0 0.9 0.00 0.00 0.00 72 1011.8
20260508102240 54 161 0.0 0.0 0.00 0.00 0.00 72 1012.0
20260508101737 54 159 0.0 0.0 0.00 0.00 0.00 71 1011.7
20260508101234 54 179 0.0 0.9 0.00 0.00 0.00 71 1011.5
20260508100732 55 176 0.0 0.9 0.00 0.00 0.00 70 1011.8
20260508100230 55 169 0.9 0.9 0.00 0.00 0.00 69 1011.6
20260508095725 55 186 0.9 1.7 0.00 0.00 0.00 68 1011.7
20260508095223 56 214 0.9 1.7 0.00 0.00 0.00 67 1011.6
20260508094719 56 147 0.9 0.9 0.00 0.00 0.00 67 1011.6
20260508094216 56 229 1.7 1.7 0.00 0.00 0.00 66 1011.6
20260508093714 56 151 0.9 0.9 0.00 0.00 0.00 66 1011.6
20260508093212 56 188 0.9 0.9 0.00 0.00 0.00 66 1011.5
20260508092708 56 156 0.9 1.7 0.00 0.00 0.00 65 1011.6
20260508092207 56 189 0.9 1.7 0.00 0.00 0.00 65 1011.5
20260508091704 56 155 0.9 0.9 0.00 0.00 0.00 64 1011.5
20260508091201 57 166 0.9 1.7 0.00 0.00 0.00 64 1011.4
20260508090659 57 162 0.0 0.9 0.00 0.00 0.00 63 1011.4
20260508090156 57 190 1.7 2.6 0.00 0.00 0.00 63 1011.5
20260508085651 57 173 1.7 1.7 0.00 0.00 0.00 62 1011.5
20260508085149 57 229 1.7 4.3 0.00 0.00 0.00 61 1011.6
20260508084645 57 174 0.9 1.7 0.00 0.00 0.00 61 1011.5
20260508084143 57 206 2.6 2.6 0.00 0.00 0.00 60 1011.4
20260508083640 57 212 3.5 5.2 0.00 0.00 0.00 60 1011.2
20260508083138 58 189 3.5 6.1 0.00 0.00 0.00 60 1011.4
20260508082632 57 201 1.7 1.7 0.00 0.00 0.00 60 1011.4
20260508082130 58 169 0.9 1.7 0.00 0.00 0.00 59 1011.5
20260508081627 57 224 1.7 2.6 0.00 0.00 0.00 59 1011.6
20260508081124 57 182 1.7 2.6 0.00 0.00 0.00 59 1011.8
20260508080621 57 163 0.9 0.9 0.00 0.00 0.00 59 1011.7
20260508080119 57 195 2.6 2.6 0.00 0.00 0.00 59 1011.6
20260508075615 57 186 0.9 1.7 0.00 0.00 0.00 60 1011.7
20260508075112 57 187 4.3 7.0 0.00 0.00 0.00 60 1011.7
20260508074610 57 162 1.7 2.6 0.00 0.00 0.00 60 1011.7
20260508074107 57 172 1.7 2.6 0.00 0.00 0.00 60 1012.0
20260508073604 56 177 1.7 1.7 0.00 0.00 0.00 60 1012.1
20260508073102 56 221 0.9 1.7 0.00 0.00 0.00 62 1012.3
20260508072557 55 172 0.9 1.7 0.00 0.00 0.00 62 1012.3
20260508072054 54 179 1.7 2.6 0.00 0.00 0.00 64 1012.2
20260508071552 54 123 0.0 0.9 0.00 0.00 0.00 66 1012.3
20260508071050 54 190 0.9 1.7 0.00 0.00 0.00 65 1012.5
20260508070547 54 134 0.0 0.0 0.00 0.00 0.00 66 1012.2
20260508070045 54 147 0.0 0.0 0.00 0.00 0.00 65 1012.3
20260508065543 54 146 0.0 0.0 0.00 0.00 0.00 65 1012.3
20260508065041 55 154 0.0 0.9 0.00 0.00 0.00 64 1012.2
20260508064538 55 151 0.0 0.0 0.00 0.00 0.00 64 1012.3
20260508064036 55 130 0.0 0.0 0.00 0.00 0.00 64 1012.3
20260508063533 55 128 0.9 0.9 0.00 0.00 0.00 64 1012.3
20260508063031 55 183 0.9 1.7 0.00 0.00 0.00 63 1012.2
20260508062528 55 176 0.9 0.9 0.00 0.00 0.00 63 1012.3
20260508062025 56 183 0.9 0.9 0.00 0.00 0.00 62 1012.3
20260508061523 56 140 1.7 4.3 0.00 0.00 0.00 62 1012.2
20260508061019 56 149 0.9 0.9 0.00 0.00 0.00 61 1012.5
20260508060516 56 218 1.7 2.6 0.00 0.00 0.00 61 1012.4
20260508060014 57 165 0.9 1.7 0.00 0.00 0.00 60 1012.2
20260508055509 57 171 0.9 0.9 0.00 0.00 0.00 60 1012.4
20260508055006 57 182 0.9 1.7 0.00 0.00 0.00 59 1012.5
20260508054503 57 197 1.7 1.7 0.00 0.00 0.00 59 1012.4
20260508054000 57 211 2.6 2.6 0.00 0.00 0.00 58 1012.3
20260508053457 58 177 1.7 1.7 0.00 0.00 0.00 58 1012.3
20260508052955 58 199 1.7 1.7 0.00 0.00 0.00 57 1012.6
20260508052452 58 126 0.0 0.9 0.00 0.00 0.00 57 1012.5
20260508051948 59 206 0.9 1.7 0.00 0.00 0.00 56 1012.5
20260508051444 59 234 1.7 4.3 0.00 0.00 0.00 56 1012.6
20260508050940 59 150 0.0 0.0 0.00 0.00 0.00 55 1012.5
20260508050437 59 194 1.7 2.6 0.00 0.00 0.00 55 1012.6
20260508045933 59 189 1.7 1.7 0.00 0.00 0.00 54 1012.6
20260508045431 59 198 0.9 1.7 0.00 0.00 0.00 54 1012.6
20260508044928 60 138 0.0 0.9 0.00 0.00 0.00 53 1012.7
20260508044425 60 216 4.3 6.1 0.00 0.00 0.00 52 1012.9